Location: ???????
(60.4260°N, 46.9069°E)
Time: 22:22:17
(UTC+00:00)

Cosmos 2360 Rocket - Pass Details

Date: 30 March 2020
Orbit: 834 x 845 km, 71.0° (Epoch: 24 May)

Event Time Altitude Azimuth Distance (km) Brightness Sun altitude
Rises 00:23:08 0° 318° (NW) 3,396 5.3 -14.3°
Reaches altitude 10° 00:26:23 10° 299° (WNW) 2,457 4.4 -14.0°
Maximum altitude 00:29:53 17° 261° (W) 1,995 3.6 -13.6°
Enters shadow 00:30:05 17° 258° (WSW) 1,996 3.6 -13.6°
